Location: Charlottesville
(38.0290°N, 78.4770°W)
Time: 05:39:37
(UTC-04:00)

Envisat - Pass Details

Date: 15 October 2017
Orbit: 764 x 766 km, 98.2° (Epoch: 23 October)

Event Time Altitude Azimuth Distance (km) Brightness Sun altitude
Exits shadow 21:23:15 30° 331° (NNW) 1,344 4.5 -33.5°
Drops below altitude 10° 21:25:51 10° 341° (NNW) 2,308 5.8 -34.0°
Sets 21:28:11 0° 344° (NNW) 3,238 6.6 -34.4°
